SAS3674 ENVA-ENAL

Flight info

Callsign SAS3674
Flight time N/A
Altitude 24000
Route GOGOX DCT DEKEB
Aircraft A320/M-SDE3FGHIRWY/LB1

Departure

Time 2026-04-27 14:57
Airport Trondheim Airport, Værnes (ENVA)

Arrival

Time N/A
Airport Ålesund Airport (ENAL)
Time Latitude Longitude Altitude Speed Heading
2026-04-27 14:47 63.45497 10.91582 39 ft 0 kts 180°
2026-04-27 14:49 63.45515 10.91582 39 ft 4 kts 178°
2026-04-27 14:49 63.45542 10.91579 39 ft 4 kts 174°
2026-04-27 14:50 63.45569 10.91570 35 ft 4 kts 164°
2026-04-27 14:50 63.45591 10.91547 36 ft 4 kts 125°
2026-04-27 14:50 63.45596 10.91526 37 ft 0 kts 90°
2026-04-27 14:53 63.45596 10.91536 37 ft 2 kts 90°
2026-04-27 14:53 63.45596 10.91604 37 ft 6 kts 90°
2026-04-27 14:53 63.45595 10.91726 39 ft 9 kts 90°
2026-04-27 14:54 63.45595 10.91886 40 ft 11 kts 90°
2026-04-27 14:54 63.45595 10.92082 40 ft 14 kts 90°
2026-04-27 14:54 63.45595 10.92312 41 ft 16 kts 90°
2026-04-27 14:54 63.45594 10.92573 43 ft 18 kts 90°
2026-04-27 14:55 63.45594 10.92847 47 ft 18 kts 90°
2026-04-27 14:55 63.45593 10.93124 51 ft 18 kts 90°
2026-04-27 14:55 63.45593 10.93405 55 ft 18 kts 90°
2026-04-27 14:55 63.45592 10.93693 54 ft 19 kts 90°
2026-04-27 14:56 63.45648 10.93948 57 ft 20 kts 44°
2026-04-27 14:56 63.45744 10.94093 60 ft 13 kts 338°
2026-04-27 14:56 63.45757 10.93958 59 ft 0 kts 270°
2026-04-27 14:56 63.45757 10.93933 59 ft 8 kts 270°
2026-04-27 14:57 63.45757 10.93266 51 ft 79 kts 270°
2026-04-27 14:57 63.45761 10.91588 39 ft 135 kts 270°
2026-04-27 14:57 63.45770 10.89248 311 ft 157 kts 271°
2026-04-27 14:57 63.45781 10.86761 986 ft 160 kts 271°
2026-04-27 14:58 63.45785 10.84239 1638 ft 169 kts 275°
2026-04-27 14:58 63.45792 10.81442 1985 ft 191 kts 275°
2026-04-27 14:58 63.45799 10.78296 2355 ft 214 kts 274°
2026-04-27 14:58 63.45805 10.74778 2799 ft 239 kts 273°
2026-04-27 14:59 63.45804 10.70961 3596 ft 250 kts 273°
2026-04-27 14:59 63.45794 10.67029 4545 ft 256 kts 273°
2026-04-27 14:59 63.45786 10.63004 5501 ft 262 kts 272°
2026-04-27 14:59 63.45783 10.58901 6432 ft 266 kts 274°
2026-04-27 15:00 63.45782 10.54730 7353 ft 270 kts 275°
2026-04-27 15:00 63.45650 10.50500 8296 ft 276 kts 264°
2026-04-27 15:00 63.45264 10.46270 9256 ft 278 kts 264°
2026-04-27 15:00 63.44871 10.42013 10203 ft 281 kts 265°
2026-04-27 15:01 63.44466 10.37572 10580 ft 303 kts 265°
2026-04-27 15:01 63.44035 10.32829 11056 ft 317 kts 264°
2026-04-27 15:01 63.43587 10.27972 11787 ft 322 kts 265°
2026-04-27 15:01 63.43128 10.23052 12537 ft 326 kts 265°
2026-04-27 15:02 63.42658 10.18075 13319 ft 329 kts 265°
2026-04-27 15:02 63.42184 10.13048 14101 ft 333 kts 265°
2026-04-27 15:02 63.41710 10.08028 14804 ft 336 kts 265°
2026-04-27 15:02 63.41223 10.02901 15485 ft 339 kts 265°
2026-04-27 15:03 63.40733 9.97738 16168 ft 341 kts 265°
2026-04-27 15:03 63.40238 9.92547 16807 ft 343 kts 265°
2026-04-27 15:03 63.39738 9.87311 17481 ft 346 kts 265°
2026-04-27 15:03 63.39229 9.82037 18140 ft 350 kts 265°
2026-04-27 15:04 63.38714 9.76711 18818 ft 353 kts 264°
2026-04-27 15:04 63.38182 9.71349 19428 ft 356 kts 263°
2026-04-27 15:04 63.37550 9.65969 20038 ft 361 kts 261°
2026-04-27 15:04 63.36840 9.60578 20653 ft 365 kts 260°
2026-04-27 15:05 63.36083 9.55136 21265 ft 368 kts 259°
2026-04-27 15:05 63.35311 9.49673 21840 ft 371 kts 259°
2026-04-27 15:05 63.34536 9.44155 22419 ft 375 kts 259°
2026-04-27 15:05 63.33766 9.38593 23006 ft 378 kts 260°
2026-04-27 15:06 63.32999 9.32972 23595 ft 381 kts 260°
2026-04-27 15:06 63.32232 9.27307 24147 ft 384 kts 260°
2026-04-27 15:06 63.31457 9.21596 24400 ft 386 kts 260°
2026-04-27 15:06 63.30678 9.15934 24460 ft 377 kts 260°
2026-04-27 15:07 63.29913 9.10450 24458 ft 368 kts 259°
2026-04-27 15:07 63.29164 9.05033 24459 ft 366 kts 260°
2026-04-27 15:07 63.28434 8.99628 24472 ft 365 kts 260°
2026-04-27 15:07 63.27712 8.94224 24474 ft 365 kts 260°
2026-04-27 15:08 63.26995 8.88830 24463 ft 365 kts 260°
2026-04-27 15:08 63.26296 8.83421 24459 ft 362 kts 264°
2026-04-27 15:08 63.25940 8.77955 24466 ft 355 kts 274°
2026-04-27 15:08 63.25827 8.72491 24466 ft 354 kts 274°
2026-04-27 15:09 63.25705 8.67022 24461 ft 354 kts 273°
2026-04-27 15:09 63.25574 8.61559 24462 ft 354 kts 273°
2026-04-27 15:09 63.25440 8.56094 24464 ft 355 kts 273°
2026-04-27 15:09 63.25304 8.50632 24465 ft 355 kts 273°
2026-04-27 15:10 63.25161 8.45161 24468 ft 355 kts 273°
2026-04-27 15:10 63.25014 8.39679 24470 ft 356 kts 273°
2026-04-27 15:10 63.24868 8.34205 24441 ft 356 kts 272°
2026-04-27 15:10 63.24666 8.28720 24447 ft 357 kts 270°
2026-04-27 15:11 63.24368 8.23229 24456 ft 359 kts 269°
2026-04-27 15:11 63.24017 8.17751 24458 ft 359 kts 268°
2026-04-27 15:11 63.23642 8.12260 24462 ft 360 kts 268°
2026-04-27 15:11 63.23265 8.06781 24465 ft 360 kts 268°
2026-04-27 15:12 63.22899 8.01300 24467 ft 359 kts 268°
2026-04-27 15:12 63.22543 7.95812 24471 ft 359 kts 268°
2026-04-27 15:12 63.22194 7.90331 24472 ft 359 kts 268°
2026-04-27 15:12 63.21853 7.84914 24458 ft 359 kts 268°
2026-04-27 15:13 63.21449 7.79430 24457 ft 363 kts 262°
2026-04-27 15:13 63.20625 7.74089 24457 ft 371 kts 252°
2026-04-27 15:13 63.19532 7.68900 24460 ft 372 kts 251°
2026-04-27 15:13 63.18433 7.63712 24460 ft 372 kts 251°
2026-04-27 15:14 63.17334 7.58520 24462 ft 372 kts 251°
2026-04-27 15:14 63.16235 7.53333 24436 ft 372 kts 251°
2026-04-27 15:14 63.15135 7.48149 24429 ft 372 kts 251°
2026-04-27 15:14 63.14034 7.42960 24432 ft 373 kts 251°
2026-04-27 15:15 63.12730 7.37968 24441 ft 379 kts 240°